Regional Weather Roundup
Issued by NWS Green Bay, WI

Home | Current Version | Previous Version | Graphics & Text | Print | Product List | Glossary Off
Versions: 1 2 3 4 5 6 7 8 9 10 11 12 13 14 15 16 17 18 19 20 21 22 23 24 25 26 27 28 29 30 31 32 33 34 35 36 37 38 39 40 41 42 43 44 45 46 47 48 49 50

000
ASUS43 KGRB 220210
RWRGRB

NORTH-CENTRAL AND NORTHEAST WISCONSIN REGIONAL WEATHER ROUNDUP
NATIONAL WEATHER SERVICE GREEN BAY WI
900 PM CDT MON JUL 21 2014

WIZ005-009-010>012-018-019-220300-
NORTH CENTRAL WISCONSIN

CITY           SKY/WX    TMP DP  RH WIND       PRES   REMARKS
IRONWOOD       CLEAR     81  70  69 S8        29.88R
MANITOWISH WTR CLEAR     76  72  86 S7        29.96R
ARBOR VITAE    CLEAR     77  71  81 S7        29.97S
EAGLE RIVER    CLEAR     76  68  76 S5        29.97F
LAND O LAKES   CLEAR     77  69  78 S5        29.98S
RHINELANDER    CLEAR     75  70  84 SE6       29.99F
PHILLIPS       MOCLDY    78  72  82 SE6       29.94S
ANTIGO         MOCLDY    73  69  89 S8        30.01S
TOMAHAWK       CLEAR     74  69  83 CALM      29.97S
MERRILL        CLEAR     78  71  80 S6        29.98R
$$

WIZ013-073-220300-
NORTHEAST WISCONSIN

CITY           SKY/WX    TMP DP  RH WIND       PRES   REMARKS
IRON MOUNTAIN  CLEAR     77  69  76 S9        29.97F
MARINETTE      CLOUDY    73  63  68 S7        29.99S
OCONTO         PTCLDY    73  66  78 SE6       30.00S
$$

WIZ017-030-035>037-045-220300-
CENTRAL WISCONSIN

CITY           SKY/WX    TMP DP  RH WIND       PRES   REMARKS
MEDFORD        CLEAR     74  70  86 S8        29.97S
WAUSAU         CLEAR     79  69  71 S8        29.96F
MOSINEE        PTCLDY    75  70  83 SE6       29.99F
MARSHFIELD     CLEAR     74  69  85 S6        29.97S
WISC RAPIDS    CLEAR     80  66  62 S6        29.99S
STEVENS POINT  CLEAR     78  66  67 S6        29.99S
WAUPACA        CLEAR     80  68  67 SE6       29.98F
SHAWANO        CLEAR     78  68  71 S5        29.99S
CLINTONVILLE   CLEAR     77  66  69 S5        29.99R
$$

WIZ038-039-048-051-220300-
FOX VALLEY

CITY           SKY/WX    TMP DP  RH WIND       PRES   REMARKS
NWS GREEN BAY  CLEAR     77  67  71 S9        30.00S
APPLETON       PTCLDY    79  64  61 S8        30.01S
OSHKOSH        CLEAR     76  69  79 S6        30.00S
FOND DU LAC    CLEAR     76  67  73 S8        30.01S
$$

WIZ022-050-052-220300-
EAST CENTRAL WISCONSIN

CITY           SKY/WX    TMP DP  RH WIND       PRES   REMARKS
STURGEON BAY   MOCLDY    70  61  73 S10       30.03R
MANITOWOC      CLEAR     71  62  73 S10       30.03S
SHEBOYGAN      MOCLDY    73  62  68 S10       30.03S
$$

LMZ563-521-522-541>543-220300-
LAKESHORE

STATION/POSITION TIME  TEMP    WIND        PRES    VSBY  WAVE
                       AIR SEA DIR/SP/G                  HT/PER
                 (UTC) (F)     (DEG/KT/KT) (MB)    (MI)  (FT/S)
SHEBOYGAN LKSHOR 0200   72     180/ 15/ 17 1016.9R
KEWAUNEE LKSHORE 0200   57     170/  6/  7 1017.5R
TWO RIVERS CG    0100   62                   N/A    1 1/4  1
NORTHPORT PIER   0200   70     170/  7/ 13 1015.9S
N MID LAKE BUOY  0200   64 57  210/ 17/ 21 1015.3F         3/ 5
CHAMBERS ISLAND  0200   74     150/  7/ 14 1015.6S
MENOMINEE LKSHOR 0200   72     160/ 12/ 15 1016.3S
$$



USA.gov is the U.S. government's official web portal to all federal, state and local government web resources and services.